Location: Aalen
(48.8330°N, 10.1000°E)
Time: 19:05:47
(UTC+02:00)

Transit 4A - Pass Details

Date: 04 August 2021
Orbit: 871 x 974 km, 66.8° (Epoch: 16 September)

Event Time Altitude Azimuth Distance (km) Brightness Sun altitude
Rises 09:56:58 0° 319° (NW) 3,479 10.5 37.4°
Reaches altitude 10° 09:59:35 10° 312° (NW) 2,545 9.9 37.8°
Maximum altitude 10:04:57 38° 247° (WSW) 1,337 8.8 38.6°
Drops below altitude 10° 10:10:23 10° 181° (S) 2,582 10.6 39.5°
Sets 10:13:04 0° 173° (S) 3,536 11.2 39.9°
